Location: *
(49.5667°N, 1.3667°W)
Time: 13:00:09
(UTC+00:00)

FREGAT/IRIS - Pass Details

Date: 20 September 2019
Orbit: 347 x 350 km, 97.0° (Epoch: 16 October)

Event Time Altitude Azimuth Distance (km) Brightness Sun altitude
Exits shadow 19:37:53 - 183° (S) 1,626 5.6 -15.0°
Reaches altitude 10° 19:38:37 10° 187° (S) 1,323 5.1 -15.1°
Maximum altitude 19:41:19 43° 261° (W) 516 3.6 -15.5°
Drops below altitude 10° 19:44:03 10° 335° (NNW) 1,338 6.0 -15.9°
Sets 19:46:03 0° 342° (NNW) 2,189 7.0 -16.2°
